ATLAS CENTAUR 2 1 00694U 63047A 12034.52339941 .00000897 00000-0 11098-3 0 8158 2 00694 30.3608 111.0715 0610892 5.6918 355.0274 13.96450134407825 THOR AGENA D R/B 1 00733U 64002A 12034.29586857 .00000098 00000-0 54519-4 0 5705 2 00733 99.0057 112.5044 0034750 122.1421 238.3140 14.31456700501697 SL-3 R/B 1 00877U 64053B 12034.90784877 .00000041 00000-0 33913-4 0 9088 2 00877 65.0762 256.1778 0065160 174.4892 185.6938 14.58326149515564 SL-8 R/B 1 02802U 67045B 12034.86183486 .00000221 00000-0 72920-4 0 8064 2 02802 74.0097 213.4122 0066822 18.4545 341.9003 14.42699260346182 SL-8 R/B 1 03230U 68040B 12034.55073812 .00000811 00000-0 97996-4 0 5155 2 03230 74.0329 193.7886 0033668 305.3659 54.4374 14.85267239343907 OAO 2 1 03597U 68110A 12033.75939898 .00000178 00000-0 55533-4 0 8245 2 03597 34.9938 147.5399 0006009 30.7350 329.3691 14.45049099273968 ISIS 1 1 03669U 69009A 12034.21242461 .00000208 00000-0 13843-3 0 3648 2 03669 88.4303 4.9854 1714859 27.4168 340.7648 11.28972862767643 METEOR 1-1 1 03835U 69029A 12034.23133515 .00136084 00000-0 51730-3 0 9865 2 03835 81.1493 299.9952 0008985 75.2612 284.9649 15.87147770346759 SERT 2 1 04327U 70009A 12034.81577311 .00000032 00000-0 10000-3 0 4360 2 04327 99.1281 218.2791 0005111 20.1199 340.0143 13.58275123 81346 SL-3 R/B 1 04814U 70113B 12033.71078263 .00002601 00000-0 13105-3 0 8016 2 04814 81.1509 187.0421 0037450 243.4086 116.3299 15.16213302235603 SL-3 R/B 1 05118U 71028B 12034.60096867 .00000971 00000-0 67021-4 0 9240 2 05118 81.2355 229.9006 0045849 298.8988 60.7653 15.04037281208515 ASTEX 1 1 05560U 71089A 12034.79878130 .00000281 00000-0 78160-4 0 6190 2 05560 92.7249 292.6638 0017710 119.3137 240.9838 14.46532500117595 SL-8 R/B 1 05730U 71119B 12033.93543762 .00002799 00000-0 20539-3 0 329 2 05730 73.9060 315.6243 0783924 218.2950 135.9937 13.81618596932678 COSMOS 482 DESCENT CRAFT 1 06073U 72023E 12034.55585263 .00018249 44157-5 12132-3 0 7056 2 06073 52.0779 84.8073 2054634 106.7332 27.8395 11.50959039124120 OAO 3 (COPERNICUS) 1 06153U 72065A 12034.36773672 .00000211 00000-0 50990-4 0 9751 2 06153 35.0087 15.7236 0007636 293.6910 66.2982 14.56819888 94673 ATLAS CENTAUR R/B 1 06155U 72065B 12034.88644302 .00000569 00000-0 99093-4 0 6667 2 06155 35.0073 314.6094 0041011 285.9522 73.6660 14.68587823103323 OPS 8180 (RADCAT) 1 06212U 72076A 12034.37852250 .00047737 00000-0 72742-3 0 5398 2 06212 98.5738 211.1523 0002179 261.8863 98.2134 15.54351599270262 SL-8 R/B 1 07004U 73107B 12034.85962457 .00018722 00000-0 67335-3 0 8766 2 07004 73.9562 166.3088 0389479 161.4005 200.1880 14.78798235941742 SL-8 R/B 1 07338U 74044B 12034.54426796 .00061758 00000-0 48192-3 0 7603 2 07338 82.8682 230.0409 0102166 208.2318 151.3384 15.64619817947143 DELTA 1 R/B 1 08063U 75072B 12033.90293783 .00027690 -54624-6 68435-3 0 1496 2 08063 89.1267 248.8788 0834014 184.2808 175.0907 13.95368773600982 SL-8 R/B 1 08459U 75112B 12034.20362231 .00000141 00000-0 57413-4 0 4446 2 08459 74.0615 108.8395 0015560 48.9618 311.2877 14.36052059892630 SL-3 R/B 1 10114U 77057B 12034.10408240 .00000718 00000-0 47728-4 0 6076 2 10114 97.3911 278.5732 0015107 296.1239 63.8438 15.10164254886899 SL-3 R/B 1 10861U 78045B 12033.69009396 .00011853 00000-0 22202-3 0 8708 2 10861 81.1992 3.2153 0013345 235.6241 124.3758 15.48437947853256 SEASAT 1 1 10967U 78064A 12034.16989424 .00000198 00000-0 10096-3 0 6265 2 10967 108.0031 167.4820 0002024 230.9051 129.1911 14.42441531763722 SL-14 R/B 1 11267U 79011B 12034.20829737 .00000323 00000-0 33027-4 0 6739 2 11267 82.5257 278.8682 0015594 266.6268 93.3162 14.87355784783823 SL-8 R/B 1 11574U 79089B 12034.08269818 .00000064 00000-0 28929-4 0 785 2 11574 74.0665 236.7169 0016561 278.6605 81.2672 14.39812420694824 SL-14 R/B 1 11672U 80005B 12034.36491268 .00000382 00000-0 40480-4 0 2771 2 11672 82.5176 128.1717 0017474 346.7706 13.3050 14.86406733731961 SL-3 R/B 1 11849U 80051B 12033.70229406 .00004743 00000-0 16326-3 0 6789 2 11849 97.8014 218.2427 0010832 122.7039 237.5258 15.30537940734247 SL-3 R/B 1 11933U 80069B 12033.74429207 .00008906 00000-0 20721-3 0 5381 2 11933 81.2183 329.0988 0020963 123.9087 236.4177 15.41909890728633 COSMOS 1220 1 12054U 80089A 12033.61817549 .00013158 00000-0 37239-3 0 7989 2 12054 64.9751 52.3849 0026112 139.8794 220.4276 15.36241575614823 SL-8 R/B 1 12139U 81003B 12033.54470414 .00003496 00000-0 20540-3 0 5695 2 12139 82.9567 3.4015 0570713 179.5245 180.6623 14.29876755564065 SL-8 R/B 1 12389U 81033B 12034.18898189 .00015993 00000-0 45581-3 0 2323 2 12389 82.9121 189.0525 0353004 230.8724 126.0641 14.91657851579355 SL-3 R/B 1 12465U 81046B 12033.88365743 .00002057 00000-0 13768-3 0 6157 2 12465 81.2284 106.9436 0036592 11.1847 349.0188 15.05964231671431 METEOR PRIRODA 1 12585U 81065A 12034.19611245 .00001488 00000-0 97355-4 0 1402 2 12585 97.3075 53.4414 0019791 20.0614 340.1389 15.09071344665363 SL-3 R/B 1 12904U 81103B 12034.20685054 .00000993 00000-0 77939-4 0 7953 2 12904 81.1795 346.3534 0032367 16.9008 343.3282 14.99678464198317 SL-3 R/B 1 13068U 82013B 12034.86189235 .00000875 00000-0 65701-4 0 7748 2 13068 81.2074 291.7528 0023022 287.2172 72.6526 15.01453084628751 SL-3 R/B 1 13154U 82039B 12034.88839642 .00000804 00000-0 72573-4 0 5349 2 13154 81.1843 276.4921 0043580 171.3389 188.8592 14.93745360610600 COSMOS 1400 1 13402U 82079A 12034.86782173 .00006305 00000-0 17910-3 0 5663 2 13402 81.1276 56.4124 0008532 85.9261 274.2956 15.35975134616368 SL-3 R/B 1 13403U 82079B 12033.91226039 .00000951 00000-0 72842-4 0 9091 2 13403 81.1753 345.9965 0037329 233.0571 126.7201 15.00439963601965 SL-3 R/B 1 13819U 83010B 12034.23746302 .00001429 00000-0 93441-4 0 2119 2 13819 81.1092 276.2542 0036491 339.0617 20.9109 15.06651554577575 COSMOS 1484 1 14207U 83075A 12034.40291667 .00021840 00000-0 24074-3 0 1191 2 14207 97.6323 218.9027 0010079 319.3253 40.7253 15.63073368 10282 SL-3 R/B 1 14208U 83075B 12033.72490403 .00000875 00000-0 67094-4 0 3934 2 14208 97.5451 86.0340 0046555 16.2948 343.9741 15.03582224552043 COSMOS 1500 1 14372U 83099A 12034.55989781 .00001469 00000-0 98200-4 0 8967 2 14372 82.5370 103.9287 0012810 352.1624 7.9400 15.06194062541508 SL-8 R/B 1 14484U 83111B 12034.22768914 .00018732 00000-0 51942-3 0 7739 2 14484 82.8364 54.8165 0372140 19.2968 342.1915 14.88673024442340 COSMOS 1536 1 14699U 84013A 12034.83569827 .00001356 00000-0 10882-3 0 3668 2 14699 82.5252 59.6907 0012356 231.4383 128.5737 14.99267460518748 COSMOS 1544 1 14819U 84027A 12034.19873840 .00003412 00000-0 20592-3 0 2820 2 14819 82.4895 175.2335 0021543 28.2973 331.9423 15.10226225518255 SL-14 R/B 1 14820U 84027B 12034.91548090 .00000286 00000-0 32570-4 0 9427 2 14820 82.5400 14.9032 0021179 45.9516 314.3439 14.82373488505437 ERBS 1 15354U 84108B 12033.76628782 .00003427 00000-0 17585-3 0 8628 2 15354 56.9840 144.1514 0019010 49.8787 310.3919 15.18991064497792 SL-8 R/B 1 15483U 85006B 12034.42995809 .00000192 00000-0 75722-4 0 5654 2 15483 74.0426 351.8418 0018218 97.9042 262.4179 14.35437254415130 SL-12 R/B(2) 1 15772U 85042D 12034.82143775 .00000154 00000-0 92474-4 0 7378 2 15772 71.1026 150.8644 0037026 212.3046 147.5811 14.20816791382969 SL-14 R/B 1 15945U 85069B 12034.46655546 .00000355 00000-0 40957-4 0 9287 2 15945 82.5280 167.7204 0018426 269.8571 90.0532 14.82713490430361 SL-3 R/B 1 16111U 85090B 12034.21863756 .00003130 00000-0 13413-3 0 7833 2 16111 97.4727 108.3090 0031637 206.4965 153.4670 15.23072801443142 SL-16 R/B 1 16182U 85097B 12034.88310791 .00000111 00000-0 80539-4 0 6342 2 16182 70.9991 171.7768 0008302 193.6789 166.4106 14.16018674358703 SL-14 R/B 1 16496U 86006B 12034.50631302 .00000248 00000-0 27575-4 0 8393 2 16496 82.5231 44.9503 0021717 57.3114 303.0188 14.82814757406665 SL-14 R/B 1 16792U 86046B 12034.19637925 .00000225 00000-0 25395-4 0 7356 2 16792 82.4817 246.0350 0022992 265.5251 94.3333 14.81937223384322 SL-14 R/B 1 16882U 86055B 12034.74825858 .00000254 00000-0 28973-4 0 7257 2 16882 82.5204 267.1839 0021694 25.9783 334.2515 14.81894948377411 AJISAI (EGS) 1 16908U 86061A 12034.83848089 -.00000083 00000-0 10000-3 0 7379 2 16908 50.0087 82.2186 0011637 145.4596 214.6993 12.44468691827348 COSMOS 1812 1 17295U 87003A 12033.90819251 .00002120 00000-0 14969-3 0 6833 2 17295 82.5196 259.6972 0013658 16.0816 344.0839 15.04381102363033 SL-14 R/B 1 17567U 87024B 12034.08200853 .00000233 00000-0 26101-4 0 6318 2 17567 82.5246 232.9348 0019199 335.9324 24.0990 14.82452563345796 COSMOS 1833 1 17589U 87027A 12034.16897166 .00000102 00000-0 80763-4 0 855 2 17589 70.9185 345.6441 0008467 174.6674 185.4538 14.12808900283335 SL-16 R/B 1 17590U 87027B 12034.49930712 -.00000053 00000-0 -25532-5 0 376 2 17590 71.0056 318.0820 0003290 37.9494 322.1843 14.16535891286456 SL-14 R/B 1 17912U 87038B 12034.53530734 .00000290 00000-0 33720-4 0 6241 2 17912 82.5021 88.4091 0019339 197.9254 162.1283 14.81754859337268 COSMOS 1844 1 17973U 87041A 12034.56891998 -.00000054 00000-0 -32138-5 0 1111 2 17973 70.9001 84.9099 0031700 190.9697 169.0737 14.13803326276017 SL-14 R/B 1 18153U 87055B 12034.83451484 .00000305 00000-0 35268-4 0 6162 2 18153 82.5016 143.3897 0023951 57.6940 302.6587 14.81994613327894 COSMOS 1867 1 18187U 87060A 12034.18231228 -.00000065 00000-0 13208-4 0 3807 2 18187 65.0074 316.2623 0013537 262.2028 97.7513 14.30913930283405 SL-14 R/B 1 18749U 88001B 12034.37604593 .00000363 00000-0 42805-4 0 6287 2 18749 82.5128 340.7391 0017774 290.5794 69.3510 14.81934556299949 COSMOS 1933 1 18958U 88020A 12034.11752240 .00001328 00000-0 11045-3 0 5557 2 18958 82.5305 188.9142 0014661 88.6291 271.6613 14.97864272297397 SL-3 R/B 1 19046U 88032B 12034.21211705 .00000571 00000-0 54200-4 0 988 2 19046 97.7751 87.9959 0037542 118.4415 242.0597 14.96961544278713 SL-16 R/B 1 19120U 88039B 12034.67313324 .00000272 00000-0 15343-3 0 4153 2 19120 71.0154 146.4988 0023025 309.9791 49.9290 14.18917557228275 COSMOS 1953 1 19210U 88050A 12034.25720106 .00001004 00000-0 82351-4 0 6655 2 19210 82.5197 124.9990 0017831 79.6839 280.6391 14.98084144283479 SL-8 R/B 1 19257U 88053B 12034.53991746 .00000249 00000-0 93342-4 0 3806 2 19257 74.0460 218.9042 0021392 235.4101 124.5027 14.36602524237136 COSMOS 1975 1 19573U 88093A 12034.55423553 .00000923 00000-0 78220-4 0 4380 2 19573 82.5211 72.1556 0019370 99.4082 260.9328 14.96708218265744 SL-14 R/B 1 19574U 88093B 12033.92586046 .00000351 00000-0 40946-4 0 6266 2 19574 82.5317 177.1960 0023880 95.5525 264.8413 14.82034502258830 SL-16 R/B 1 19650U 88102B 12034.86396087 -.00000164 00000-0 -59047-4 0 6457 2 19650 70.9932 176.4922 0015791 281.3730 78.5623 14.15565609198563 INTERCOSMOS 24 1 20261U 89080A 12034.54139406 .00000236 00000-0 71221-4 0 6757 2 20261 82.5918 198.5532 1212339 291.7273 55.9177 12.53841769 20036 SL-14 R/B 1 20262U 89080C 12034.85211790 .00000141 00000-0 35019-4 0 1743 2 20262 82.5873 230.7892 1241747 43.0082 326.1578 12.47963643 17107 DELTA 1 R/B 1 20323U 89089B 12033.65412300 .00000151 00000-0 49083-4 0 2723 2 20323 97.0955 268.1228 0074227 126.8007 234.0038 14.47039486170938 DELTA 2 R/B(1) 1 20453U 90008B 12034.50232520 .00005946 00000-0 42503-3 0 2927 2 20453 35.6331 76.7927 0362000 277.8603 78.1166 14.63638667158664 COSMOS 2058 1 20465U 90010A 12034.17306594 .00001358 00000-0 13080-3 0 3594 2 20465 82.4935 325.8803 0019181 39.1476 321.1127 14.92086630192333 SL-14 R/B 1 20466U 90010B 12034.08359307 .00000284 00000-0 34274-4 0 2220 2 20466 82.4995 46.1331 0019704 299.4762 60.4477 14.80166626187289 SL-14 R/B 1 20511U 90018B 12034.22254573 .00000320 00000-0 40225-4 0 2262 2 20511 82.5233 338.9021 0019825 59.5549 300.7619 14.78874703182121 HST 1 20580U 90037B 12033.80363283 .00001564 00000-0 10354-3 0 9369 2 20580 28.4724 309.2623 0003558 58.6018 301.4443 15.02156561994359 SL-16 R/B 1 20625U 90046B 12034.89786646 .00000103 00000-0 78612-4 0 788 2 20625 70.9968 302.8638 0015770 210.4972 149.5234 14.14436080120632 COSMOS 2084 1 20663U 90055A 12034.16068718 .00000731 00000-0 88556-4 0 3859 2 20663 62.7941 269.2753 0137303 119.0879 242.4042 14.86618781167736 SL-6 R/B(2) 1 20666U 90055D 12033.94821369 .00001077 00000-0 12361-3 0 4716 2 20666 62.7825 196.3191 0116434 136.6380 224.3945 14.87572977168964 SL-8 R/B 1 20775U 90078B 12034.53767322 .00012364 00000-0 69249-3 0 7650 2 20775 82.9329 186.0382 0700493 157.2733 206.1118 14.05066505 70700 SL-8 R/B 1 21088U 91006B 12034.10176853 .00000148 00000-0 13456-3 0 2332 2 21088 82.9380 37.8093 0024150 51.1499 309.1809 13.76813258 55725 OKEAN-3 1 21397U 91039A 12033.95829320 .00001086 00000-0 11594-3 0 5579 2 21397 82.5218 195.2168 0018546 299.3085 60.6276 14.87819730117668 COSMOS 2151 1 21422U 91042A 12034.20199562 .00000833 00000-0 87230-4 0 1632 2 21422 82.5036 307.8883 0015455 354.2645 5.8400 14.88346791116447 SL-14 R/B 1 21423U 91042B 12034.41321483 .00000309 00000-0 38947-4 0 9980 2 21423 82.4937 352.4225 0017657 182.9598 177.1519 14.78651436112727 ERS-1 1 21574U 91050A 12034.02105600 .00000239 00000-0 95568-4 0 2554 2 21574 98.1981 16.6565 0034913 66.7845 293.7013 14.36018668 75967 ARIANE 40 R/B 1 21610U 91050F 12034.51455550 .00000343 00000-0 12461-3 0 8339 2 21610 98.7488 28.9118 0003697 30.3958 329.7438 14.39534791 77880 INTERCOSMOS 25 1 21819U 91086A 12034.14243087 .00000895 00000-0 18112-3 0 6427 2 21819 82.5646 158.2784 1543309 286.2674 57.4499 11.99952321876561 SL-14 R/B 1 21820U 91086B 12034.46172164 .00000157 00000-0 25008-4 0 4984 2 21820 82.5543 193.3931 1586965 44.9985 326.9156 11.91326694873103 SL-8 R/B 1 21876U 92008B 12033.79339239 .00000090 00000-0 77388-4 0 17 2 21876 82.9277 134.7420 0036219 107.4303 253.0814 13.75424545 1746 SL-8 R/B 1 21938U 92020B 12034.48874653 -.00000027 00000-0 -44171-4 0 208 2 21938 82.9281 15.9147 0027549 262.6888 97.1136 13.75084486993812 SL-16 R/B 1 22220U 92076B 12034.58352176 -.00000245 00000-0 -99631-4 0 6777 2 22220 70.9969 225.5398 0011723 12.5638 347.5773 14.16208000993170 SL-16 R/B 1 22285U 92093B 12034.18486867 -.00000289 00000-0 -12512-3 0 6778 2 22285 71.0162 5.4212 0006371 239.2080 120.8416 14.14790534985162 COSMOS 2228 1 22286U 92094A 12034.23433682 .00000548 00000-0 62823-4 0 6040 2 22286 82.5192 58.0904 0023475 129.4278 230.9019 14.83863712 31280 SL-16 R/B 1 22566U 93016B 12034.06243211 .00000204 00000-0 13070-3 0 4163 2 22566 71.0033 222.7401 0011986 237.6263 122.3744 14.14719788973898 COSMOS 2242 1 22626U 93024A 12034.53159665 .00000741 00000-0 85771-4 0 3680 2 22626 82.5211 85.4234 0021692 127.8128 232.5055 14.83999877 14972 SL-16 R/B 1 22803U 93059B 12034.49104438 -.00000279 00000-0 -11591-3 0 6418 2 22803 70.9906 60.4475 0016065 137.0250 223.2131 14.16578488950606 ARIANE 40 R/B 1 22830U 93061H 12033.90052687 .00000178 00000-0 85380-4 0 5349 2 22830 98.7035 352.0361 0010239 263.7859 96.2153 14.30691271957724 COSMOS 2278 1 23087U 94023A 12034.23679344 .00000373 00000-0 22344-3 0 6770 2 23087 71.0489 136.3976 0009508 319.5514 40.4903 14.13442595917382 SL-16 R/B 1 23088U 94023B 12034.53497805 -.00000289 00000-0 -12599-3 0 3006 2 23088 70.9972 76.6865 0004851 221.7002 138.3753 14.14496553918287 SL-16 R/B 1 23343U 94074B 12034.13438459 .00000519 00000-0 84321-4 0 3100 2 23343 98.1570 14.9785 0006315 223.9725 136.0992 14.75348434927524 SL-16 R/B 1 23405U 94077B 12034.20757970 -.00000048 00000-0 00000+0 0 5301 2 23405 70.9728 17.7987 0001810 6.1624 353.9516 14.14990524888103 ERS-2 1 23560U 95021A 12034.72394450 .00002734 00000-0 21224-3 0 2237 2 23560 98.5046 131.7837 0005404 53.4745 306.6977 15.02324953879175 ARIANE 40+ R/B 1 23561U 95021B 12034.86480187 .00000234 00000-0 94488-4 0 1107 2 23561 98.5627 348.5049 0006817 318.5986 41.4677 14.36676397879657 SL-16 R/B 1 23705U 95058B 12033.83477650 -.00000221 00000-0 -89849-4 0 6124 2 23705 71.0215 183.4409 0010858 41.6998 318.4949 14.14923330839742 SL-16 R/B 1 24298U 96051B 12034.83971695 -.00000172 00000-0 -66880-4 0 8223 2 24298 70.8703 231.4529 0018310 224.4510 135.5142 14.12415029795022 ORBVIEW 2 (SEASTAR) 1 24883U 97037A 12034.40948599 .00000191 00000-0 86277-4 0 6441 2 24883 98.3990 156.9592 0002862 140.3634 219.7744 14.32396985771101 SL-16 R/B 1 25400U 98043G 12034.89667586 -.00000002 00000-0 16597-4 0 64 2 25400 98.2788 47.7273 0009205 293.3703 66.6508 14.25151641705843 SL-16 R/B 1 25407U 98045B 12034.57672501 -.00000238 00000-0 -97155-4 0 8239 2 25407 71.0057 200.9204 0008796 302.5005 57.5267 14.15557684698711 ISS (ZARYA) 1 25544U 98067A 12034.86863426 -.00001965 00000-0 -18124-4 0 9424 2 25544 51.6423 75.8121 0020339 2.5479 345.5829 15.58658818757067 SL-8 R/B 1 25723U 99022C 12034.07428795 .00003622 00000-0 18078-3 0 275 2 25723 48.4375 248.1804 0021482 185.9743 174.0935 15.19663080705193 CZ-4B R/B 1 25732U 99025C 12034.90058632 .00000048 00000-0 45145-4 0 8924 2 25732 98.7770 6.0519 0036877 284.2413 75.4668 14.17290985658927 OKEAN-O 1 25860U 99039A 12033.91386708 .00000454 00000-0 76451-4 0 5538 2 25860 97.9173 359.4790 0001180 33.8735 326.2549 14.74074039674642 SL-16 R/B 1 25861U 99039B 12034.13043331 .00000290 00000-0 48332-4 0 9119 2 25861 97.8235 1.1305 0015257 294.9262 65.0365 14.76938746676157 SL-14 R/B 1 26874U 01032B 12034.17868452 .00004575 00000-0 11617-3 0 9860 2 26874 82.4798 158.5386 0020013 306.3076 53.6328 15.39152858587794 ENVISAT 1 27386U 02009A 12034.77131102 -.00000110 00000-0 -22120-4 0 9668 2 27386 98.4789 105.0736 0000948 89.3098 270.8163 14.37494186519383 IDEFIX & ARIANE 42P R/B 1 27422U 02021B 12034.25487914 .00000079 00000-0 48320-4 0 8358 2 27422 98.4208 101.1823 0011580 277.9538 82.0327 14.28707737506629 AQUA 1 27424U 02022A 12034.43445491 .00000493 00000-0 11952-3 0 2034 2 27424 98.2212 336.8264 0001196 83.5852 276.5471 14.57088175518748 CZ-4B R/B 1 27432U 02024C 12033.94700959 .00000023 00000-0 34538-4 0 3668 2 27432 98.7026 0.5948 0050158 202.4813 157.4197 14.13705307501659 JB-3 2 (ZY 2B) 1 27550U 02049A 12034.76701725 .00008543 00000-0 27828-3 0 5423 2 27550 97.0695 34.0927 0007789 13.3467 92.4894 15.32035945516170 MIDORI II (ADEOS-II) 1 27597U 02056A 12034.74526733 .00000130 00000-0 71091-4 0 6465 2 27597 98.3435 76.2085 0001304 26.7643 333.3604 14.26376910475858 H-2A R/B 1 27601U 02056E 12034.87475151 .00000142 00000-0 68724-4 0 4316 2 27601 98.5311 124.2176 0072835 330.3446 29.3616 14.30943761477380 H-2A R/B 1 27700U 03009C 12034.20659844 .00059504 00000-0 54888-3 0 7432 2 27700 96.9958 36.7274 0019955 188.8169 171.2834 15.67167349496018 CZ-4B R/B 1 28059U 03049C 12034.85233771 .00000191 00000-0 59052-4 0 3873 2 28059 98.6524 192.9531 0051748 86.9303 273.7814 14.51673985439179 CZ-2C R/B 1 28222U 04012C 12034.62025232 .00001622 00000-0 13551-3 0 5260 2 28222 97.3533 44.5682 0053570 47.0454 313.5243 14.98732503425869 SL-16 R/B 1 28353U 04021B 12034.01793258 -.00000095 00000-0 -24842-4 0 1298 2 28353 70.9962 230.6736 0006354 279.7643 80.2763 14.13971707394922 CZ-4B R/B 1 28471U 04044B 12034.03603644 .00026787 00000-0 34601-3 0 1832 2 28471 96.9691 31.2795 0070019 86.6830 274.2430 15.55944303405986 CZ-2C R/B 1 28480U 04046B 12030.21938133 .00000031 00000-0 27773-4 0 8287 2 28480 98.0751 244.9079 0142420 273.7893 84.7139 14.24975134374333 ARIANE 5 R/B 1 28499U 04049H 12034.57073409 .00000440 00000-0 64774-4 0 2661 2 28499 98.3054 55.1722 0097065 39.1699 321.6479 14.77665834384210 CZ-2D R/B 1 28738U 05024B 12034.15982563 .00002324 00000-0 17932-3 0 1266 2 28738 97.7275 63.8491 0014605 213.4327 146.5977 15.02509778360435 SUZAKU (ASTRO-EII) 1 28773U 05025A 12034.85153445 .00002183 00000-0 15285-3 0 6898 2 28773 31.4065 292.0387 0007157 295.4870 64.5029 15.03035769360851 ALOS (DAICHI) 1 28931U 06002A 12034.83044843 .00000571 00000-0 12903-3 0 7309 2 28931 98.0918 107.3172 0001587 55.5122 304.6221 14.59761387321175 H-2A R/B 1 28932U 06002B 12034.78700819 .00002148 00000-0 24030-3 0 9551 2 28932 98.3242 203.3517 0102609 211.6372 147.8648 14.84335199326225 AKARI (ASTRO-F) 1 28939U 06005A 12034.89597082 .00005695 00000-0 32971-3 0 8012 2 28939 98.2533 50.9909 0183919 359.3708 0.7252 14.99464450316520 RESURS-DK 1 1 29228U 06021A 12034.81064755 .00000459 00000-0 45256-4 0 3277 2 29228 69.9354 35.4811 0002502 140.3010 283.1955 14.99267072313963 GENESIS 1 1 29252U 06029A 12034.19173243 .00002202 00000-0 16029-3 0 5338 2 29252 64.5103 158.6765 0055454 259.6389 99.8484 15.05471808305430 H-2A R/B 1 29394U 06037B 12034.89253317 .00541218 14087-3 80161-3 0 8252 2 29394 97.4125 198.2333 0004629 41.5616 318.6019 16.04936378304192 CZ-4B R/B 1 29507U 06046C 12034.57187902 .00001256 00000-0 12209-3 0 7403 2 29507 97.6935 30.4312 0043645 351.1742 8.8703 14.93678202287670 SL-8 R/B 1 29659U 06060B 12034.86196345 .00009266 00000-0 24754-3 0 5247 2 29659 98.1440 239.6964 0031288 119.4467 240.9904 15.37855283286193 ATLAS 5 CENTAUR R/B 1 30778U 07006G 12034.87071237 .00006335 00000-0 26979-3 0 3103 2 30778 35.7013 198.6468 0027758 20.0933 340.0881 15.22095937272259 CZ-2C R/B 1 31114U 07010B 12034.00258762 .00000253 00000-0 13799-3 0 3174 2 31114 98.2551 19.2735 0060387 151.6268 208.8241 14.18743534249383 COSMO-SKYMED 1 1 31598U 07023A 12034.80925850 .00000309 00000-0 45307-4 0 1767 2 31598 97.8666 222.1839 0001168 88.7465 271.3894 14.82160305252060 GENESIS 2 1 31789U 07028A 12034.23113404 .00001484 00000-0 11477-3 0 2806 2 31789 64.5066 191.1964 0043649 310.4392 49.2931 15.05053179252627 COSMOS 2428 1 31792U 07029A 12034.84996310 .00000138 00000-0 10000-3 0 1088 2 31792 71.0117 199.5148 0007879 343.9312 164.3462 14.12529290237276 SL-16 R/B 1 31793U 07029B 12034.83475777 -.00000258 00000-0 -11021-3 0 3347 2 31793 70.9731 186.0949 0002216 253.3017 106.7866 14.14102336237552 KORONAS-FOTON 1 33504U 09003A 12034.64815076 .00001074 00000-0 69796-4 0 3306 2 33504 82.4775 7.4959 0016967 45.9788 69.9123 15.06887595165381 TIANGONG 1 1 37820U 11053A 12034.75971069 .00033570 00000-0 26648-3 0 4367 2 37820 42.7841 146.7510 0009767 356.3169 132.8780 15.70553340 20020 PROGRESS-M 13M 1 37857U 11062A 12025.08885417 -.00491350 00000-0 -23012-1 0 894 2 37857 51.6399 125.1895 0017864 257.5895 116.6606 15.21284496 13522 PHOBOS-GRUNT 1 37872U 11065A 12015.69171186 .10804850 13050-4 36619-4 0 3204 2 37872 51.4132 350.1235 0009680 342.5577 17.5128 16.57963948 10968